Location: Brissac
(47.3500°N, 0.4500°W)
Time: 23:47:45
(UTC+02:00)

ISS - Visible Passes

Search period start: 23 August 2019 00:00
Search period end: 02 September 2019 00:00
Orbit: 410 x 421 km, 51.6° (Epoch: 24 August)

Date Brightness Start Highest point End Pass type
(mag) Time Alt. Az. Time Alt. Az. Time Alt. Az.
27 Aug -1.2 06:24:18 10° S 06:26:20 15° SE 06:28:23 10° E visible
29 Aug -2.5 06:22:02 10° SSW 06:25:05 34° SE 06:28:09 10° ENE visible
30 Aug -1.9 05:35:12 18° S 05:36:23 22° SE 05:39:01 10° E visible
31 Aug -1.1 04:48:24 13° ESE 04:48:24 13° ESE 04:49:31 10° ESE visible
31 Aug -3.7 06:21:17 15° WSW 06:23:57 75° SSE 06:27:18 10° ENE visible
01 Sep -3.3 05:34:25 40° S 05:35:07 48° SSE 05:38:23 10° ENE visible
